Weather Roundup
Issued by NWS Chicago, IL

Home | Current Version | Previous Version | Text Only | Print | Product List | Glossary Off
Versions: 1 2 3 4 5 6 7 8 9 10 11 12 13 14 15 16 17 18 19 20 21 22 23 24 25 26 27 28 29 30 31 32 33 34 35 36 37 38 39 40 41 42 43 44 45 46 47 48 49 50

000
NZUS59 KLOT 260910
HRRLOT

CHICAGO AREA WEATHER ROUNDUP
NATIONAL WEATHER SERVICE CHICAGO/ROMEOVILLE IL
400 AM CDT SAT JUL 26 2014

NOTE: "FAIR" INDICATES FEW OR NO CLOUDS BELOW 12,000 FEET WITH NO
SIGNIFICANT WEATHER AND/OR OBSTRUCTIONS TO VISIBILITY.

* THESE STATIONS ARE NOT UNDER NWS QUALITY CONTROL. THEY ALSO MAY NOT
  REPORT WEATHER SUCH AS PRECIPITATION OR FOG.

ILZ005-006-012>014-019>023-261000-
NORTHEAST ILLINOIS

CITY           SKY/WX    TMP DP  RH WIND       PRES   REMARKS
OHARE          MOCLDY    68  57  68 S3        29.86F
MIDWAY         CLOUDY    70  60  70 SW12      29.86F
AURORA         CLOUDY    68  59  73 S6        29.87F
LANSING*       CLOUDY    67  59  73 SW9       29.87F
JOLIET*        CLOUDY    69  59  71 S7        29.88F
WAUKEGAN       CLOUDY    63  59  87 CALM      29.86S
DUPAGE AIRPORT CLOUDY    68  60  75 S9        29.85F
WHEELING       PTCLDY    69  59  70 S3        29.87F
KANKAKEE*      CLOUDY    68  61  79 S6        29.89F
MORRIS*        CLOUDY    69  62  78 S5        29.86F
LEWIS AIRPORT* MOCLDY    67  59  75 S8        29.87F
NORTHERLY IS     N/A     69  58  67 S6          N/A
$$

WIZ051-052-058>065-066-070>072-261000-
SOUTHEAST WISCONSIN

CITY           SKY/WX    TMP DP  RH WIND       PRES   REMARKS
MILWAUKEE      PTCLDY    64  59  83 SW3       29.86F
KENOSHA*       MOCLDY    59  58  96 CALM      29.87F
RACINE*        CLEAR     61  58  90 CALM      29.88F
BURLINGTON     CLOUDY    58  58  98 CALM      29.86F
WAUKESHA       CLEAR     57  55  94 CALM      29.87F
WEST BEND      CLEAR     61  55  82 CALM      29.85F
$$

INZ001>003-010>013-019-020-261000-
NORTHWEST INDIANA

CITY           SKY/WX    TMP DP  RH WIND       PRES   REMARKS
GARY*          CLEAR     69  60  72 CALM      29.88F
MICHIGAN CITY* NOT AVBL
RENSSELAER*    NOT AVBL
VALPARAISO     CLEAR     63  59  87 CALM      29.89F
$$

LMZ740>746-261000-
SOUTHERN LAKE MICHIGAN

STATION/POSITION TIME  SKY/WX   TEMP WIND        PRES    VSBY
                                AIR  DIR/SP/G
                 (UTC)          (F)  (DEG/KT/KT) (MB)    (MI)
HARRISON CRIB    0900            69  200/ 12/ 15   N/A
BURNHAM HARBOR   0900            69  220/  4/  8   N/A
CALUMET HARBOR   0900            68  200/  3/  4 1010.4S
BURNS HARBOR     NOT AVBL
MICHIGAN CITY    0900            65  180/  4/  6   N/A
$$

ABBREVIATIONS USED IN REMARKS
   TC - TEMPERATURE IN CELSIUS
  WCI - WIND CHILL INDEX
   HX - HEAT INDEX
  VSB - VISIBILITY
$$


USA.gov is the U.S. government's official web portal to all federal, state and local government web resources and services.